Dewpoint
17 17 17 18 19 18 15 16 8 12 12 13 14 15 17 19 18 18 19 23 29 29 28 28 28 28 25 21 16 17 17 16 17 17 17 18 19 19 19 20 21 21 21 21
13 15 15 11 15 18 19 17 17 16 13 16 20 21 22 22 22 21 21 21 24 28 28 27 26 26 22 16 16 17 15 16 17 16 16 18 19 19 18 19 19 20 19 21
11 10 12 12 12 13 15 17 16 9 16 19 20 21 21 22 23 23 23 24 23 25 27 27 26 25 21 15 16 16 14 14 14 15 16 18 18 18 18 19 19 19 19 20
16 17 13 10 13 15 14 15 17 15 17 20 22 23 23 24 24 24 25 25 25 25 27 28 26 23 17 16 16 15 15 14 14 16 16 17 19 19 20 20 20 20 20 21
20 15 14 9 13 12 15 16 17 16 19 22 23 24 24 26 26 26 26 26 27 27 27 27 23 17 18 18 16 15 15 14 15 16 17 19 19 20 21 21 21 20 21 21
16 12 8 15 17 19 19 15 19 21 21 22 24 21 23 27 27 26 27 27 27 27 25 21 16 17 16 17 17 15 14 15 16 17 18 19 20 20 21 21 20 21 21 21
19 16 17 18 19 21 13 15 21 22 23 24 23 24 27 28 28 28 27 27 27 24 21 18 14 14 14 12 12 14 14 16 18 19 20 19 19 19 19 20 20 20 20 20
21 18 11 21 20 17 21 23 23 24 26 26 28 29 29 29 29 28 27 27 25 22 18 15 15 14 14 12 13 13 16 17 18 18 17 17 17 18 19 18 18 18 18 19
20 21 24 22 22 23 24 25 25 26 28 29 29 29 29 29 29 28 27 26 24 21 15 15 16 14 11 11 13 18 18 18 16 15 16 17 17 17 18 19 19 19 20 20
20 18 24 25 24 24 25 26 27 29 29 29 28 28 28 29 28 28 26 24 19 14 12 11 12 12 13 15 18 21 18 16 15 15 16 16 17 19 19 19 19 20 19 19
21 21 21 22 24 25 26 28 29 29 28 28 28 28 28 28 28 26 21 15 13 11 10 11 12 13 18 22 23 19 15 13 14 15 16 16 17 19 20 20 20 19 20 22
18 20 22 25 26 28 28 29 28 27 27 28 27 26 27 26 23 18 14 14 14 14 13 14 17 20 24 21 17 15 14 15 16 19 19 20 20 21 23 25 26 27 28 28
22 26 27 28 29 30 29 28 27 26 27 25 24 23 24 19 15 14 13 14 15 15 18 23 23 22 20 17 15 15 16 17 19 20 20 21 22 22 22 23 24 26 27 28
28 28 27 29 29 28 27 27 26 24 21 22 19 18 16 15 18 15 14 15 17 22 23 23 22 19 16 15 15 16 17 20 21 22 22 23 23 23 23 22 22 23 25 25
29 29 30 29 29 28 29 28 25 23 20 17 15 13 13 14 16 18 20 21 21 21 20 19 18 17 17 18 18 19 21 21 21 22 23 23 24 24 24 24 25 24 24 25
30 30 30 28 28 27 27 27 27 25 18 16 14 14 16 16 17 18 19 19 18 17 18 19 19 20 21 21 22 23 23 24 24 24 24 24 25 25 24 24 24 24 24 25
28 28 29 27 26 27 24 23 23 21 16 14 13 15 16 18 19 18 17 17 19 19 20 20 20 21 22 23 23 23 23 23 24 24 25 25 25 25 25 25 26 26 26 25
30 27 27 28 28 26 21 19 17 16 15 17 18 18 18 17 16 18 20 21 21 20 20 20 21 22 22 22 23 23 24 25 26 26 26 26 26 28 29 29 28 27 27 27
27 26 27 28 29 26 18 17 17 18 19 18 17 16 19 20 20 19 19 18 18 18 17 17 19 22 23 23 25 26 26 26 27 27 28 29 28 26 26 26 26 27 27 27
25 22 21 21 21 17 16 18 20 18 17 17 18 17 17 16 16 17 17 17 18 18 19 21 23 23 24 25 27 26 26 26 26 27 27 27 28 27 27 28 28 27 26 24
19 17 17 17 17 19 18 17 17 16 17 18 17 16 16 17 17 18 18 18 19 21 23 25 24 25 25 27 28 27 26 27 28 28 28 27 27 27 27 27 26 25 25 24
19 19 19 19 17 16 18 19 19 18 17 17 17 17 18 17 19 20 21 21 22 25 25 25 26 27 27 27 26 26 26 27 27 27 28 28 27 26 25 24 24 25 22 22
19 19 18 18 18 20 20 18 17 17 16 16 17 18 19 20 21 21 21 23 25 26 27 26 27 27 26 26 26 26 26 28 27 26 26 26 26 25 25 23 22 22 22 22
19 19 19 22 20 17 11 15 19 19 19 20 20 21 21 21 22 23 24 26 26 26 26 27 26 26 26 26 25 26 26 26 26 26 26 25 25 23 22 22 21 22 22 22
19 20 19 17 15 15 17 19 20 20 20 20 21 21 22 23 23 24 24 25 26 26 26 24 25 25 25 24 24 25 26 25 25 26 26 24 23 22 22 22 22 22 23 23
15 13 16 18 18 19 19 19 19 20 20 20 22 23 23 23 24 25 25 26 25 24 23 23 23 23 24 24 25 26 26 26 26 25 24 22 22 22 21 21 22 22 23 23
18 20 18 18 20 19 19 20 20 20 22 22 22 23 24 25 25 25 24 23 23 22 22 22 23 24 25 26 27 26 26 26 25 24 22 21 21 21 21 22 22 23 24 25
Wind_Speed
4 2 2 2 5 5 5 2 2 2 7 13 9 10 9 9 10 6 6 6 14 15 16 16 16 14 13 12 10 9 8 6 5 3 2 1 3 4 6 7 9 10 11 12
2 1 0 2 5 8 8 5 7 8 8 5 6 7 8 9 10 10 11 7 8 12 15 15 15 15 12 11 11 8 7 6 5 2 0 3 5 6 8 10 11 11 13 13
1 1 5 5 9 13 8 10 8 6 2 3 5 9 9 11 9 10 11 11 11 10 14 15 12 15 14 12 10 9 6 5 4 2 3 6 7 9 11 13 12 14 14 14
2 2 2 2 5 3 7 3 11 7 4 6 4 7 11 3 4 9 13 13 13 13 10 12 10 12 13 11 9 7 5 4 3 3 5 7 10 12 14 12 14 15 15 15
1 2 1 3 3 3 5 2 5 8 5 4 4 9 3 4 4 7 10 11 11 13 8 8 11 14 14 9 7 5 4 3 3 4 7 10 13 14 14 14 14 14 15 17
0 2 2 1 5 1 1 4 5 7 3 1 4 8 2 6 9 11 8 11 10 10 3 11 13 13 10 8 8 6 4 2 4 7 10 13 13 15 13 12 16 15 16 15
1 3 5 3 6 1 1 3 7 3 1 4 4 5 11 15 15 7 6 9 6 3 6 9 12 11 7 7 6 4 2 5 8 11 11 14 15 13 15 17 16 17 17 17
2 3 6 8 4 4 5 5 6 2 3 3 8 13 13 14 12 8 6 3 3 3 7 10 10 8 7 5 3 3 6 10 11 13 13 12 15 16 16 16 16 18 17 18
8 6 1 14 4 6 5 4 2 2 3 6 10 13 14 13 11 6 3 2 1 6 8 6 5 5 6 5 5 8 10 11 13 15 15 14 16 17 16 16 16 17 16 17
2 2 10 11 12 10 6 2 2 3 6 8 12 13 14 11 9 2 2 3 2 5 6 6 6 6 6 6 10 9 11 16 16 16 17 15 15 15 17 18 16 17 18 18
7 14 18 15 6 8 8 2 4 3 4 7 7 10 9 8 4 3 6 5 3 4 4 4 5 7 9 10 7 12 14 17 18 16 17 18 17 17 17 17 17 17 18 15
10 8 1 2 8 7 5 3 1 3 6 5 2 6 4 3 5 5 5 4 3 2 2 5 8 12 11 10 8 12 16 16 16 15 17 17 18 19 18 22 24 25 25 23
20 2 3 5 5 3 3 2 1 3 4 4 2 1 2 4 4 4 4 2 2 5 6 8 11 14 14 11 11 14 16 18 17 17 17 17 17 18 20 21 19 23 23 23
6 5 5 5 2 9 4 1 0 3 3 2 1 3 4 5 4 2 3 4 6 6 10 12 14 17 15 12 13 15 16 17 16 17 17 17 17 18 17 18 21 25 21 19
8 8 3 6 3 2 2 3 4 5 3 3 3 5 4 3 1 2 3 5 7 10 14 15 15 16 14 15 16 16 16 17 17 16 16 17 16 17 17 18 19 21 20 20
7 7 6 5 4 2 1 3 5 5 5 5 6 4 3 1 2 5 7 9 10 14 15 15 17 19 17 16 16 16 17 19 20 16 16 16 16 16 17 17 18 17 18 19
9 8 8 7 6 4 3 2 3 3 7 7 6 4 2 2 6 10 11 10 12 14 16 17 21 19 19 17 16 16 16 16 19 18 16 16 16 16 16 16 17 16 18 18
7 6 7 7 9 7 5 4 5 7 6 6 3 1 3 6 11 14 15 13 15 17 18 19 19 14 12 14 16 16 15 15 15 16 16 16 16 15 13 14 15 17 18 17
7 8 7 7 7 6 8 8 7 6 5 3 3 6 6 10 12 12 12 13 17 18 18 15 19 18 17 16 16 14 16 17 15 15 15 16 15 17 18 18 18 18 16 17
8 8 9 9 9 9 10 7 6 3 3 4 5 7 10 12 11 12 13 15 18 18 18 16 16 19 17 16 15 14 14 14 16 17 17 18 17 18 17 18 18 16 17 19
11 11 12 12 10 7 5 4 2 4 4 5 6 9 10 12 12 13 16 17 16 16 17 17 15 16 16 15 15 14 14 15 16 16 17 18 19 18 16 14 13 17 17 13
12 13 10 8 6 4 2 2 3 6 7 8 8 8 9 13 15 13 14 17 16 15 14 16 16 16 17 22 15 15 14 15 15 16 16 15 13 14 14 16 16 12 19 17
12 10 7 6 4 2 2 4 6 6 7 8 11 13 13 13 14 15 16 10 14 16 16 15 16 21 22 17 14 14 14 13 14 15 15 14 14 15 13 12 17 16 17 17
10 7 4 4 3 3 6 3 4 5 8 10 12 13 11 13 15 13 15 17 18 17 17 17 19 22 22 13 13 13 14 14 14 14 14 18 11 12 16 14 16 17 17 19
7 5 5 6 6 7 6 6 7 8 10 10 10 10 11 11 12 15 16 17 19 18 15 18 20 19 12 13 13 13 12 14 14 13 12 10 13 14 14 15 16 17 17 17
4 5 6 5 6 6 7 7 10 10 9 12 11 9 10 11 12 13 15 15 14 17 15 14 14 15 14 14 13 13 13 13 12 12 11 12 12 13 14 16 17 18 17 17
4 6 5 7 7 8 8 9 9 12 10 10 12 12 10 12 14 13 13 13 13 13 14 14 14 15 15 13 12 14 13 12 10 10 10 11 12 13 15 16 17 17 16 11
Wind_Direction
92 68 43 69 160 178 190 270 148 345 350 335 46 14 7 357 355 341 316 311 214 205 209 212 206 204 197 191 179 167 180 178 158 134 128 35 351 320 308 304 296 294 297 300
187 163 80 253 222 192 200 248 275 288 300 46 58 36 18 12 2 351 344 320 288 229 217 217 203 195 188 185 173 177 189 183 154 179 278 298 296 302 304 300 298 295 295 295
240 320 322 287 233 195 186 196 192 190 127 40 23 9 350 346 354 347 341 333 318 284 229 214 206 185 185 182 175 174 185 159 167 204 286 296 299 302 297 295 292 295 295 295
302 335 57 178 32 119 190 221 223 276 15 58 27 319 305 65 15 346 338 332 324 319 265 207 183 168 161 161 153 164 187 191 202 243 277 290 292 290 287 290 293 291 290 291
67 288 197 200 234 163 174 126 201 196 118 75 20 322 74 83 344 318 320 315 311 304 290 170 150 137 132 136 155 178 203 216 242 268 288 288 285 285 289 290 288 286 287 288
4 302 254 107 154 173 141 227 107 108 102 351 346 335 314 333 335 320 325 327 325 326 91 125 123 124 134 168 184 198 202 230 291 289 285 280 282 285 287 285 285 283 283 282
232 283 295 136 158 172 177 211 143 127 359 312 293 266 305 325 326 346 323 317 324 33 99 122 122 130 156 167 183 167 198 272 278 278 273 281 284 283 287 285 279 280 280 279
211 234 281 149 125 189 162 122 149 214 272 282 293 299 311 312 312 323 312 314 328 115 105 110 121 145 171 179 192 228 274 277 275 289 282 278 278 280 278 278 281 283 285 284
199 230 152 186 82 134 122 141 315 253 302 324 308 306 310 314 322 331 315 167 168 134 128 132 146 165 180 207 227 263 269 281 283 282 280 276 277 278 280 279 277 280 279 281
301 316 232 211 234 216 202 242 124 347 326 317 305 312 314 319 326 342 108 123 119 126 154 164 183 205 223 257 272 264 285 288 287 284 286 283 278 275 276 275 273 273 276 281
248 277 290 279 213 180 145 149 281 290 321 299 304 307 312 328 351 72 109 105 132 163 171 198 214 248 270 271 281 298 293 286 284 282 281 281 274 271 269 263 257 268 273 274
244 236 224 157 150 135 170 245 6 325 309 322 315 302 329 48 82 118 134 146 168 195 235 273 286 283 282 295 291 286 288 289 286 287 286 282 282 286 275 270 274 274 274 274
256 223 170 141 160 181 184 143 344 306 295 307 311 280 130 127 121 127 132 160 245 262 268 283 289 292 295 299 290 284 283 284 283 282 279 279 279 278 282 289 279 277 280 281
119 120 282 234 167 130 134 190 299 274 267 266 189 138 138 133 129 171 234 255 261 280 293 292 289 291 298 295 294 290 287 283 278 275 272 271 267 269 273 279 284 291 291 284
191 191 149 129 123 163 217 215 225 260 217 174 172 153 145 155 215 273 342 335 313 297 294 296 299 300 306 308 304 302 295 285 277 274 272 271 275 276 275 275 275 278 288 291
202 180 155 193 229 252 278 275 239 247 177 169 171 148 111 71 318 307 310 307 299 296 296 297 298 293 296 298 296 294 288 283 286 282 278 278 275 273 274 274 277 280 287 291
170 200 211 223 214 194 190 190 176 169 152 159 159 155 202 322 311 304 304 315 311 302 298 297 292 292 291 288 285 284 283 283 284 290 285 282 278 277 278 281 286 289 294 297
184 150 161 169 176 170 165 139 125 130 149 150 149 204 314 311 294 301 307 310 304 300 300 295 292 300 308 302 296 292 286 286 287 287 288 288 286 290 300 302 296 289 286 287
173 187 174 165 167 155 140 137 141 144 152 184 271 297 304 295 299 302 303 305 301 303 299 301 306 311 312 303 300 294 290 290 292 293 294 300 301 293 287 284 283 281 283 292
159 144 135 129 130 139 140 148 156 184 246 255 279 298 305 304 308 311 310 300 291 287 295 308 319 315 310 307 309 308 308 303 297 291 290 290 288 288 285 283 287 288 291 291
149 140 135 130 124 115 121 147 216 275 287 295 294 295 297 297 306 307 305 300 298 303 306 309 308 304 304 305 304 303 299 294 289 291 294 291 288 286 284 286 293 294 294 311
147 141 135 133 141 155 185 189 255 281 295 303 308 297 298 299 302 299 285 284 295 306 311 306 303 301 306 312 310 308 302 295 291 292 295 305 311 313 307 301 294 302 309 299
152 152 159 172 178 199 255 274 273 278 291 296 292 290 290 289 290 297 303 295 302 307 310 305 303 308 313 315 309 309 310 309 313 312 308 307 306 299 302 318 310 305 300 297
152 159 182 177 172 258 288 300 275 279 280 281 278 281 281 291 296 288 281 288 300 306 305 304 310 315 320 324 320 311 301 299 300 300 298 305 307 326 315 307 301 299 299 300
145 159 196 219 236 257 268 287 297 301 297 290 288 289 281 268 254 283 293 300 304 309 305 314 319 324 323 316 315 311 305 301 299 304 313 326 325 314 306 304 303 304 305 305
183 226 244 245 259 267 275 281 279 287 290 294 296 291 289 293 291 292 296 305 314 316 318 318 317 317 310 306 299 294 295 299 311 310 323 321 312 309 308 307 307 306 305 306
244 255 282 281 270 261 261 264 271 280 281 281 286 291 289 296 296 301 312 315 315 320 317 313 307 303 299 295 294 293 293 290 307 324 323 313 310 311 311 310 309 309 309 309